| time (UTC) | temp F | wind direction | speed MPH | gust MPH | rain 1hr in | rain 24hr in | rain mn in | humidity % | barometer mb |
| 20260504202205 | 60 | 11 | 0.0 | 1.0 | 0.01 | 0.09 | 0.09 | 49 | 1011.1 |
| 20260504201706 | 59 | 11 | 2.0 | 5.0 | 0.01 | 0.09 | 0.09 | 50 | 1011.2 |
| 20260504201204 | 58 | 47 | 2.0 | 5.0 | 0.03 | 0.09 | 0.09 | 52 | 1011.3 |
| 20260504200705 | 58 | 36 | 2.0 | 6.0 | 0.07 | 0.09 | 0.09 | 59 | 1011.4 |
| 20260504200206 | 57 | 9 | 2.0 | 8.0 | 0.09 | 0.09 | 0.09 | 58 | 1011.4 |
| 20260504195205 | 56 | 101 | 1.0 | 2.0 | 0.09 | 0.09 | 0.09 | 72 | 1011.1 |
| 20260504194705 | 56 | 101 | 0.0 | 1.0 | 0.09 | 0.09 | 0.09 | 74 | 1011.4 |
| 20260504194205 | 55 | 101 | 0.0 | 3.0 | 0.09 | 0.09 | 0.09 | 72 | 1011.5 |
| 20260504193705 | 56 | 188 | 1.0 | 2.0 | 0.09 | 0.09 | 0.09 | 72 | 1011.6 |
| 20260504192705 | 56 | 191 | 1.0 | 5.0 | 0.09 | 0.09 | 0.09 | 67 | 1011.8 |
| 20260504191704 | 59 | 198 | 3.0 | 9.0 | 0.08 | 0.08 | 0.08 | 57 | 1011.5 |
| 20260504191205 | 61 | 182 | 3.0 | 15.0 | 0.06 | 0.06 | 0.06 | 50 | 1011.2 |
| 20260504190705 | 63 | 200 | 7.0 | 26.0 | 0.02 | 0.02 | 0.02 | 41 | 1011.1 |
| 20260504190206 | 65 | 168 | 5.0 | 14.0 | 0.00 | 0.00 | 0.00 | 35 | 1010.9 |
| 20260504185205 | 67 | 177 | 9.0 | 16.0 | 0.00 | 0.00 | 0.00 | 27 | 1010.6 |
| 20260504184705 | 68 | 173 | 2.0 | 9.0 | 0.00 | 0.00 | 0.00 | 24 | 1010.6 |
| 20260504184205 | 68 | 32 | 6.0 | 13.0 | 0.00 | 0.00 | 0.00 | 23 | 1010.6 |
| 20260504183705 | 69 | 5 | 2.0 | 5.0 | 0.00 | 0.00 | 0.00 | 21 | 1010.4 |
| 20260504183206 | 69 | 78 | 3.0 | 10.0 | 0.00 | 0.00 | 0.00 | 23 | 1010.4 |
| 20260504182705 | 69 | 53 | 5.0 | 7.0 | 0.00 | 0.00 | 0.00 | 21 | 1010.3 |
| 20260504181705 | 70 | 297 | 4.0 | 9.0 | 0.00 | 0.00 | 0.00 | 22 | 1010.3 |
| 20260504181205 | 70 | 352 | 5.0 | 9.0 | 0.00 | 0.00 | 0.00 | 21 | 1010.3 |
| 20260504180705 | 71 | 339 | 4.0 | 12.0 | 0.00 | 0.00 | 0.00 | 21 | 1010.4 |
| 20260504180205 | 71 | 14 | 5.0 | 13.0 | 0.00 | 0.00 | 0.00 | 21 | 1010.4 |
| 20260504175705 | 72 | 14 | 4.0 | 10.0 | 0.00 | 0.00 | 0.00 | 22 | 1010.4 |
| 20260504175204 | 73 | 350 | 6.0 | 14.0 | 0.00 | 0.00 | 0.00 | 21 | 1010.5 |
| 20260504174705 | 72 | 358 | 2.0 | 6.0 | 0.00 | 0.00 | 0.00 | 23 | 1010.5 |
| 20260504174205 | 72 | 355 | 2.0 | 9.0 | 0.00 | 0.00 | 0.00 | 23 | 1010.6 |
| 20260504173705 | 72 | 22 | 4.0 | 9.0 | 0.00 | 0.00 | 0.00 | 22 | 1010.7 |
| 20260504172705 | 72 | 48 | 3.0 | 6.0 | 0.00 | 0.00 | 0.00 | 23 | 1011.0 |
| 20260504172205 | 72 | 34 | 3.0 | 6.0 | 0.00 | 0.00 | 0.00 | 23 | 1010.9 |
| 20260504171704 | 71 | 355 | 1.0 | 5.0 | 0.00 | 0.00 | 0.00 | 24 | 1011.0 |
| 20260504171205 | 71 | 71 | 2.0 | 5.0 | 0.00 | 0.00 | 0.00 | 24 | 1011.1 |
| 20260504160204 | 65 | 223 | 1.0 | 3.0 | 0.00 | 0.00 | 0.00 | 29 | 1011.8 |
| 20260504150705 | 60 | 224 | 1.0 | 3.0 | 0.00 | 0.00 | 0.00 | 33 | 1012.0 |
| 20260504150204 | 59 | 285 | 1.0 | 3.0 | 0.00 | 0.00 | 0.00 | 35 | 1012.0 |
| 20260504141204 | 53 | 254 | 0.0 | 0.0 | 0.00 | 0.00 | 0.00 | 44 | 1012.1 |
| 20260504140704 | 52 | 254 | 0.0 | 0.0 | 0.00 | 0.00 | 0.00 | 43 | 1012.1 |
| 20260504140205 | 52 | 254 | 0.0 | 0.0 | 0.00 | 0.00 | 0.00 | 44 | 1012.1 |
| 20260504130705 | 45 | 46 | 0.0 | 2.0 | 0.00 | 0.00 | 0.00 | 59 | 1012.0 |
| 20260504130205 | 45 | 46 | 0.0 | 1.0 | 0.00 | 0.00 | 0.00 | 58 | 1011.9 |
| 20260504110704 | 42 | 46 | 0.0 | 0.0 | 0.00 | 0.00 | 0.00 | 59 | 1011.8 |
| 20260504110204 | 42 | 46 | 0.0 | 0.0 | 0.00 | 0.00 | 0.00 | 59 | 1011.9 |
| 20260504100204 | 43 | 46 | 0.0 | 0.0 | 0.00 | 0.00 | 0.00 | 57 | 1012.2 |
| 20260504081704 | 50 | 46 | 0.0 | 0.0 | 0.00 | 0.00 | 0.00 | 45 | 1012.8 |
| 20260504081204 | 51 | 46 | 0.0 | 0.0 | 0.00 | 0.00 | 0.00 | 45 | 1012.8 |
| 20260504080204 | 52 | 46 | 0.0 | 0.0 | 0.00 | 0.00 | 0.00 | 43 | 1012.8 |
| 20260504070204 | 56 | 46 | 0.0 | 1.0 | 0.00 | 0.00 | 0.00 | 34 | 1013.3 |
| 20260504060204 | 59 | 265 | 1.0 | 3.0 | 0.00 | 0.00 | 0.00 | 30 | 1012.9 |
| 20260504050704 | 61 | 211 | 3.0 | 10.0 | 0.00 | 0.00 | 0.00 | 29 | 1013.0 |
| 20260504050203 | 61 | 238 | 3.0 | 9.0 | 0.00 | 0.00 | 0.00 | 29 | 1013.1 |
| 20260504045704 | 61 | 241 | 2.0 | 8.0 | 0.00 | 0.00 | 0.00 | 29 | 1013.1 |
| 20260504045204 | 61 | 295 | 1.0 | 8.0 | 0.00 | 0.00 | 0.00 | 29 | 1013.2 |
| 20260504044704 | 61 | 273 | 1.0 | 5.0 | 0.00 | 0.00 | 0.00 | 29 | 1013.2 |
| 20260504044204 | 61 | 228 | 1.0 | 6.0 | 0.00 | 0.00 | 0.00 | 29 | 1013.2 |
| 20260504043704 | 61 | 272 | 1.0 | 6.0 | 0.00 | 0.00 | 0.00 | 29 | 1013.2 |
| 20260504042704 | 62 | 238 | 0.0 | 3.0 | 0.00 | 0.00 | 0.00 | 29 | 1013.3 |
| 20260504042204 | 62 | 238 | 1.0 | 3.0 | 0.00 | 0.00 | 0.00 | 29 | 1013.3 |
| 20260504041204 | 62 | 235 | 1.0 | 6.0 | 0.00 | 0.00 | 0.00 | 29 | 1013.3 |
| 20260504040704 | 62 | 248 | 1.0 | 5.0 | 0.00 | 0.00 | 0.00 | 29 | 1013.4 |
| 20260504035704 | 62 | 274 | 2.0 | 7.0 | 0.00 | 0.00 | 0.00 | 29 | 1013.5 |
| 20260504034703 | 62 | 243 | 2.0 | 8.0 | 0.00 | 0.00 | 0.00 | 29 | 1013.6 |
| 20260504034204 | 61 | 255 | 2.0 | 8.0 | 0.00 | 0.00 | 0.00 | 29 | 1013.6 |
| 20260504033704 | 61 | 266 | 2.0 | 5.0 | 0.00 | 0.00 | 0.00 | 30 | 1013.6 |
| 20260504033203 | 61 | 197 | 1.0 | 5.0 | 0.00 | 0.00 | 0.00 | 30 | 1013.6 |
| 20260504032703 | 61 | 243 | 1.0 | 3.0 | 0.00 | 0.00 | 0.00 | 31 | 1013.6 |
| 20260504032203 | 61 | 161 | 0.0 | 1.0 | 0.00 | 0.00 | 0.00 | 31 | 1013.6 |
| 20260504031204 | 61 | 161 | 0.0 | 2.0 | 0.00 | 0.00 | 0.00 | 32 | 1013.6 |
| 20260504025704 | 61 | 153 | 0.0 | 3.0 | 0.00 | 0.00 | 0.00 | 32 | 1013.6 |
| 20260504024704 | 62 | 101 | 0.0 | 2.0 | 0.00 | 0.00 | 0.00 | 32 | 1013.5 |
| 20260504024204 | 62 | 101 | 0.0 | 2.0 | 0.00 | 0.00 | 0.00 | 31 | 1013.4 |
| 20260504023704 | 62 | 101 | 0.0 | 0.0 | 0.00 | 0.00 | 0.00 | 31 | 1013.5 |
| 20260504023204 | 62 | 101 | 0.0 | 2.0 | 0.00 | 0.00 | 0.00 | 31 | 1013.6 |
| 20260504022704 | 63 | 101 | 0.0 | 1.0 | 0.00 | 0.00 | 0.00 | 31 | 1013.6 |
| 20260504022204 | 63 | 101 | 0.0 | 1.0 | 0.00 | 0.00 | 0.00 | 30 | 1013.6 |
| 20260504021706 | 64 | 101 | 0.0 | 0.0 | 0.00 | 0.00 | 0.00 | 30 | 1013.6 |
| 20260504021205 | 64 | 101 | 0.0 | 1.0 | 0.00 | 0.00 | 0.00 | 30 | 1013.6 |
| 20260504020706 | 64 | 101 | 0.0 | 0.0 | 0.00 | 0.00 | 0.00 | 29 | 1013.4 |
| 20260504015706 | 65 | 101 | 0.0 | 1.0 | 0.00 | 0.00 | 0.00 | 27 | 1013.4 |
| 20260504015205 | 65 | 101 | 1.0 | 2.0 | 0.00 | 0.00 | 0.00 | 27 | 1013.4 |
| 20260504014705 | 65 | 101 | 0.0 | 0.0 | 0.00 | 0.00 | 0.00 | 27 | 1013.3 |
| 20260504013705 | 65 | 101 | 0.0 | 1.0 | 0.00 | 0.00 | 0.00 | 27 | 1013.3 |
| 20260504013206 | 65 | 101 | 1.0 | 3.0 | 0.00 | 0.00 | 0.00 | 26 | 1013.2 |
| 20260504012706 | 66 | 99 | 1.0 | 3.0 | 0.00 | 0.00 | 0.00 | 26 | 1013.3 |
| 20260504012206 | 66 | 99 | 2.0 | 3.0 | 0.00 | 0.00 | 0.00 | 26 | 1013.3 |
| 20260504011706 | 66 | 101 | 0.0 | 3.0 | 0.00 | 0.00 | 0.00 | 26 | 1013.3 |
| 20260504011206 | 66 | 65 | 1.0 | 5.0 | 0.00 | 0.00 | 0.00 | 26 | 1013.3 |
| 20260504010205 | 66 | 67 | 0.0 | 3.0 | 0.00 | 0.00 | 0.00 | 26 | 1013.3 |
| 20260504005705 | 67 | 67 | 0.0 | 3.0 | 0.00 | 0.00 | 0.00 | 25 | 1013.3 |
| 20260504005206 | 67 | 67 | 1.0 | 3.0 | 0.00 | 0.00 | 0.00 | 25 | 1013.4 |
| 20260504004705 | 67 | 67 | 1.0 | 3.0 | 0.00 | 0.00 | 0.00 | 25 | 1013.4 |
| 20260504004206 | 67 | 67 | 2.0 | 3.0 | 0.00 | 0.00 | 0.00 | 25 | 1013.4 |
| 20260504003705 | 67 | 66 | 2.0 | 6.0 | 0.00 | 0.00 | 0.00 | 25 | 1013.4 |
| 20260504003206 | 67 | 23 | 2.0 | 6.0 | 0.00 | 0.00 | 0.00 | 25 | 1013.5 |
| 20260504002705 | 67 | 21 | 2.0 | 8.0 | 0.00 | 0.00 | 0.00 | 25 | 1013.5 |
| 20260504002205 | 67 | 36 | 3.0 | 5.0 | 0.00 | 0.00 | 0.00 | 24 | 1013.5 |
| 20260504001705 | 67 | 57 | 2.0 | 5.0 | 0.00 | 0.00 | 0.00 | 24 | 1013.5 |
| 20260504001206 | 67 | 55 | 2.0 | 6.0 | 0.00 | 0.00 | 0.00 | 24 | 1013.5 |
| 20260504000205 | 67 | 47 | 2.0 | 3.0 | 0.00 | 0.00 | 0.00 | 24 | 1013.6 |
| 20260503235705 | 67 | 355 | 0.0 | 3.0 | 0.00 | 0.00 | 0.00 | 26 | 1013.6 |
| 20260503235206 | 67 | 347 | 1.0 | 5.0 | 0.00 | 0.00 | 0.00 | 25 | 1013.8 |
| 20260503234706 | 67 | 5 | 1.0 | 6.0 | 0.00 | 0.00 | 0.00 | 25 | 1013.7 |
| 20260503234205 | 67 | 5 | 2.0 | 9.0 | 0.00 | 0.00 | 0.00 | 24 | 1013.5 |
| 20260503233706 | 68 | 53 | 2.0 | 3.0 | 0.00 | 0.00 | 0.00 | 24 | 1013.3 |
| 20260503233205 | 68 | 10 | 2.0 | 9.0 | 0.00 | 0.00 | 0.00 | 24 | 1013.2 |
| 20260503232705 | 68 | 24 | 1.0 | 13.0 | 0.00 | 0.00 | 0.00 | 23 | 1013.2 |
| 20260503232205 | 69 | 7 | 7.0 | 14.0 | 0.00 | 0.00 | 0.00 | 22 | 1013.3 |
| 20260503231705 | 69 | 358 | 3.0 | 7.0 | 0.00 | 0.00 | 0.00 | 21 | 1013.2 |
| 20260503231206 | 69 | 196 | 0.0 | 2.0 | 0.00 | 0.00 | 0.00 | 22 | 1013.1 |
| 20260503230705 | 69 | 196 | 0.0 | 2.0 | 0.00 | 0.00 | 0.00 | 21 | 1013.1 |
| 20260503230205 | 69 | 196 | 1.0 | 6.0 | 0.00 | 0.00 | 0.00 | 21 | 1013.3 |
| 20260503225705 | 69 | 216 | 2.0 | 6.0 | 0.00 | 0.00 | 0.00 | 21 | 1013.4 |
| 20260503224706 | 69 | 347 | 1.0 | 3.0 | 0.00 | 0.00 | 0.00 | 21 | 1013.3 |
| 20260503224205 | 69 | 5 | 1.0 | 6.0 | 0.00 | 0.00 | 0.00 | 21 | 1013.3 |
| 20260503223705 | 69 | 270 | 1.0 | 3.0 | 0.00 | 0.00 | 0.00 | 20 | 1013.2 |
| 20260503223205 | 70 | 304 | 2.0 | 3.0 | 0.00 | 0.00 | 0.00 | 21 | 1013.2 |
| 20260503222705 | 70 | 243 | 0.0 | 6.0 | 0.00 | 0.00 | 0.00 | 20 | 1013.2 |
| 20260503222206 | 70 | 342 | 2.0 | 8.0 | 0.00 | 0.00 | 0.00 | 20 | 1013.4 |
| 20260503221706 | 71 | 338 | 4.0 | 12.0 | 0.00 | 0.00 | 0.00 | 18 | 1013.5 |
| 20260503221205 | 71 | 289 | 2.0 | 7.0 | 0.00 | 0.00 | 0.00 | 18 | 1013.5 |
| 20260503220205 | 71 | 333 | 4.0 | 12.0 | 0.00 | 0.00 | 0.00 | 18 | 1013.5 |
| 20260503215705 | 71 | 347 | 2.0 | 7.0 | 0.00 | 0.00 | 0.00 | 19 | 1013.6 |
| 20260503215205 | 71 | 33 | 1.0 | 5.0 | 0.00 | 0.00 | 0.00 | 18 | 1013.7 |
| 20260503214705 | 71 | 342 | 2.0 | 7.0 | 0.00 | 0.00 | 0.00 | 18 | 1013.8 |
| 20260503213705 | 72 | 0 | 2.0 | 8.0 | 0.00 | 0.00 | 0.00 | 16 | 1013.8 |
| 20260503212705 | 73 | 342 | 3.0 | 12.0 | 0.00 | 0.00 | 0.00 | 15 | 1014.0 |
| 20260503212205 | 74 | 349 | 2.0 | 8.0 | 0.00 | 0.00 | 0.00 | 16 | 1014.1 |
| 20260503210705 | 75 | 248 | 2.0 | 6.0 | 0.00 | 0.00 | 0.00 | 15 | 1014.1 |
| 20260503210205 | 75 | 113 | 0.0 | 1.0 | 0.00 | 0.00 | 0.00 | 15 | 1014.2 |
| 20260503205706 | 75 | 113 | 2.0 | 3.0 | 0.00 | 0.00 | 0.00 | 15 | 1014.2 |
| 20260503205206 | 75 | 187 | 1.0 | 3.0 | 0.00 | 0.00 | 0.00 | 14 | 1014.3 |
| 20260503204205 | 74 | 83 | 1.0 | 3.0 | 0.00 | 0.00 | 0.00 | 15 | 1014.4 |
| 20260503203705 | 74 | 83 | 1.0 | 3.0 | 0.00 | 0.00 | 0.00 | 15 | 1014.4 |
| 20260503203205 | 74 | 182 | 1.0 | 7.0 | 0.00 | 0.00 | 0.00 | 15 | 1014.5 |
| 20260503202705 | 74 | 193 | 2.0 | 7.0 | 0.00 | 0.00 | 0.00 | 14 | 1014.5 |